Orbital Elements at Epoch 2459000.5 (2020-May-31.0) TDB
Reference: JPL 16 (heliocentric ecliptic J2000)
Element | Value | Uncertainty (1-sigma) | Units |
e | .2161257913159179 | 4.2776e-08 | |
a | 2.236357616756436 | 8.9454e-09 | au |
q | 1.753023057169571 | 9.7331e-08 | au |
i | 5.655910653048569 | 3.8393e-06 | deg |
node | 128.5510300119122 | 4.7965e-05 | deg |
peri | 230.5334064280842 | 4.8707e-05 | deg |
M | 115.974395563774 | 1.2064e-05 | deg |
tp | 2458606.977178604827 (2019-May-03.47717860) | 3.9381e-05 | TDB |
period | 1221.547351150964 3.34 | 7.3292e-06 2.007e-08 | d yr |
n | .2947081827493642 | 1.7682e-09 | deg/d |
Q | 2.719692176343301 | 1.0879e-08 | au |
|
| | Orbit Determination Parameters
Additional Information
|